Home > Weather > Antwerp > Past weeks

Flag for Belgium Past Weather in Antwerp, Belgium — Yesterday and Last 2 Weeks

Now
63 °F

Clear.


Feels Like: 63 °F
Forecast: 60 / 71 °F
Wind: 3 mph from North

Location: Antwerp / Deurne

Current Time: Jun 1, 2016 at 2:00:54 AM

Latest Report: Jun 1, 2016 at 1:20 AM


Visibility: 10 mi

Pressure: 29.95 "Hg

Humidity: 77%

Dew Point: 55 °F

Location of AntwerpLocation

Past Weather in Antwerp — Graph

°F

Antwerp Temperature Yesterday

Maximum temperature yesterday: 66 °F (at 4:50 PM)
Minimum temperature yesterday: 57 °F (at 12:20 AM)
Average temperature yesterday: 62 °F

High & Low Weather Summary for the Past Weeks

 TemperatureHumidityPressure
High73 °F (May 21, 3:50 PM)88% (May 19, 3:50 AM)30.12 "Hg (May 19, 3:50 AM)
Low45 °F (May 17, 12:20 AM)37% (May 19, 5:20 PM)29.65 "Hg (May 18, 7:20 PM)
Average59 °F73%29.90 "Hg
* Reported May 17 12:20 AM — Jun 1 12:50 AM, Antwerp, Weather by CustomWeather, © 2016

Note: Actual official high and low records may vary slightly from our data, if they occured in-between our weather recording intervals... More about our weather records

Advertising

Antwerp Weather History for the Previous 24 Hours

Scroll right to see more
 ConditionsComfort  
Time TempWeatherWind HumidityBarometerVisibility
12:50 AM
Wed, Jun 1
64 °FPassing clouds.3 mph73%29.95 "HgN/A
12:20 AM63 °FClear.1 mph83%29.95 "Hg10 mi
11:50 PM
Tue, May 31
64 °FClear.2 mph78%29.95 "Hg10 mi
11:20 PM64 °FClear.2 mph78%29.95 "Hg10 mi
10:50 PM64 °FClear.2 mph78%29.95 "Hg10 mi
10:20 PM64 °FSunny.1 mph73%29.95 "Hg10 mi
9:50 PM64 °FSunny.2 mph73%29.92 "Hg10 mi
9:20 PM64 °FPassing clouds.3 mph73%29.92 "HgN/A
8:50 PM66 °FPassing clouds.3 mph68%29.89 "HgN/A
8:20 PM66 °FPassing clouds.5 mph68%29.89 "HgN/A
7:50 PM66 °FPassing clouds.2 mph73%29.89 "HgN/A
7:20 PM66 °FPassing clouds.7 mph68%29.89 "HgN/A
6:50 PM66 °FPassing clouds.7 mph68%29.86 "HgN/A
6:20 PM66 °FPassing clouds.7 mph68%29.86 "HgN/A
5:50 PM66 °FPassing clouds.6 mph73%29.86 "HgN/A
5:20 PM66 °FScattered clouds.7 mph73%29.86 "HgN/A
4:50 PM66 °FScattered clouds.7 mph73%29.83 "HgN/A
4:20 PM64 °FPartly sunny.6 mph73%29.83 "HgN/A
3:50 PM64 °FPartly sunny.7 mph73%29.83 "HgN/A
3:20 PM64 °FPartly sunny.8 mph73%29.83 "HgN/A
2:50 PM64 °FPartly sunny.7 mph73%29.83 "HgN/A
2:20 PM63 °FPartly sunny.8 mph77%29.83 "HgN/A
1:50 PM63 °FPartly sunny.8 mph77%29.80 "HgN/A
1:20 PM63 °FBroken clouds.9 mph77%29.80 "HgN/A
12:50 PM63 °FBroken clouds.9 mph77%29.80 "HgN/A
12:20 PM63 °FBroken clouds.8 mph83%29.77 "HgN/A
11:50 AM61 °FBroken clouds.10 mph83%29.77 "HgN/A
11:20 AM61 °FBroken clouds.10 mph83%29.74 "HgN/A
10:50 AM61 °FBroken clouds.12 mph83%29.74 "HgN/A
10:20 AM61 °FDrizzle. Broken clouds.12 mph83%29.74 "Hg4 mi
9:50 AM61 °FBroken clouds.12 mph83%29.74 "HgN/A
9:20 AM61 °FBroken clouds.8 mph83%29.71 "HgN/A
8:50 AM61 °FPartly sunny.8 mph83%29.71 "HgN/A
8:20 AM61 °FPartly sunny.8 mph83%29.71 "HgN/A
7:50 AM61 °FPartly sunny.8 mph83%29.68 "HgN/A
7:20 AM61 °FScattered clouds.7 mph83%29.68 "Hg6 mi
6:50 AM61 °FPassing clouds.8 mph83%29.68 "Hg5 mi
6:20 AM61 °FFog.8 mph83%29.65 "Hg2 mi
5:50 AM61 °FFog.6 mph83%29.65 "Hg2 mi
5:20 AM61 °FFog.5 mph83%29.65 "Hg1 mi
4:50 AM61 °FFog.7 mph83%29.65 "Hg1 mi
4:20 AM59 °FFog.6 mph88%29.65 "Hg1 mi
3:50 AM59 °FFog.8 mph88%29.65 "Hg1 mi
3:20 AM59 °FFog.7 mph88%29.65 "Hg1 mi
2:50 AM59 °FSprinkles. Fog.7 mph88%29.65 "Hg1 mi
2:20 AM57 °FFog.8 mph88%29.65 "Hg1 mi
Weather by CustomWeather, © 2016

See weather overviewHow to use our weather pages